User: anonymous
Location: Vancouver
(49.2500°N, 123.1330°W)
Time: 14:05:13
(UTC-07:00)
Language:

Iridium 21 - Orbit

View from above orbital plane
View from above orbital plane
View from above satellite
View from above satellite

Ground track
Ground track

The orbit data is extracted from the following two-line orbital elements,

1 25778U 99032B   14244.47754949  .00000201  00000-0  64650-4 0  8623
2 25778 086.3940 290.1947 0002399 115.1345 018.4985 14.34218824801951
Epoch (UTC): 01 September 2014 11:27:40
Eccentricity: 0.0002399
inclination: 86.3940°
perigee height: 776 km
apogee height: 779 km
right ascension of ascending node: 290.1947°
argument of perigee: 115.1345°
revolutions per day: 14.34218824
mean anomaly at epoch: 18.4985°
orbit number at epoch: 80195

The dashed part of the orbit path shows where the satellite is in the earth's shadow,  

DLR